Hourly Data Report for July 27, 2021

IQALUIT CLIMATE
NUNAVUT
Current Station Operator: ECCC - MSC

63°44'50.000" N
68°32'40.000" W
33.50 m
2402592
71321
XFB

Download Data

Hourly Data (July 2021)
Hourly Data Report for July 27, 2021
TIME
LST
Temp Definition
°C
Dew Point Definition
°C
Rel Hum Definition
%
Precip. Amount Definition
mm

Wind Dir Definition
10's deg

Wind Spd Definition
km/h
Visibility Definition
km
Stn Press Definition
kPa
Hmdx Definition


Wind Chill Definition


Weather Definition


00:00 9.6 5.7 76 0.0 28 7   100.03     LegendNANA
01:00 10.1 6.2 77 0.0 30 6   100.07     LegendNANA
02:00 10.0 6.2 77 0.0 32 5   100.11     LegendNANA
03:00 9.8 6.1 78 0.0 28 7   100.18     LegendNANA
04:00 9.2 6.1 81 0.0 34 16   100.25     LegendNANA
05:00 8.9 6.4 84 0.0 34 13   100.33     LegendNANA
06:00 9.6 5.5 75 0.0 33 12   100.35     LegendNANA
07:00 9.9 4.8 71 0.0 32 14   100.40     LegendNANA
08:00 10.2 4.5 68 0.0 29 17   100.44     LegendNANA
09:00 11.1 4.4 63 0.0 33 13   100.46     LegendNANA
10:00 11.5 3.8 59 0.0 31 15   100.46     LegendNANA
11:00 12.3 4.1 57 0.0 27 18   100.47     LegendNANA
12:00 12.9 4.1 55 0.0 25 18   100.48     LegendNANA
13:00 13.2 4.7 56 0.0 24 20   100.52     LegendNANA
14:00 13.2 4.1 54 0.0 26 20   100.55     LegendNANA
15:00 13.1 3.9 54 0.0 26 20   100.60     LegendNANA
16:00 12.6 3.3 53 0.0 27 21   100.63     LegendNANA
17:00 12.0 3.5 56 0.0 28 21   100.67     LegendNANA
18:00 11.5 2.5 54 0.0 30 15   100.70     LegendNANA
19:00 10.8 2.8 58 0.0 29 23   100.73     LegendNANA
20:00 9.5 3.3 65 0.0 30 19   100.77     LegendNANA
21:00 7.5 3.5 76 0.0 31 13   100.80     LegendNANA
22:00 7.2 3.5 78 0.0 31 10   100.81     LegendNANA
23:00 6.5 2.9 78 0.0 32 11   100.82     LegendNANA

Notes on Data Quality.

Legend

  • E = Estimated
  • M = Missing
  • NA = Not Available*
  • [empty] = Indicates an unobserved value
Date modified: